Regional Weather Roundup
Issued by NWS Newport/Morehead, NC

Current Version | Previous Version | Text Only | Print | Product List | Glossary Off
Versions: 1 2 3 4 5 6 7 8 9 10 11 12 13 14 15 16 17 18 19 20 21 22 23 24 25 26 27 28 29 30 31 32 33 34 35 36 37 38 39 40 41 42 43 44 45 46 47 48 49 50
687 ASUS42 KMHX 220924 RWRMHX WEATHER ROUNDUP FOR EASTERN NORTH CAROLINA NATIONAL WEATHER SERVICE NEWPORT/MOREHEAD CITY NC 500 AM EDT FRI MAY 22 2015 NOTE: "FAIR" INDICATES FEW OR NO CLOUDS BELOW 12,000 FEET WITH NO SIGNIFICANT WEATHER AND/OR OBSTRUCTIONS TO VISIBILITY NCZ015>017-031-032-045>047-102-103-221000- NORTH COAST CITY SKY/WX TMP DP RH WIND PRES REMARKS EDENTON PTCLDY 55 52 90 NW5 30.04R ELIZABETH CITY CLEAR 55 52 89 W10 30.01R KITTY HAWK CLOUDY 58 53 82 NW12G20 29.97R MANTEO CLOUDY 58 52 80 NW10G20 30.01R $$ NCZ045>047-081-094-103-104-221000- CENTRAL COAST CITY SKY/WX TMP DP RH WIND PRES REMARKS FRISCO CLOUDY 60 54 80 N8G18 29.99R SWANQUARTER N/A 59 N/A N/A N5 29.97S $$ NCZ095-097-098-100-101-221000- SOUTHERN COAST CITY SKY/WX TMP DP RH WIND PRES REMARKS BEAUFORT CLOUDY 60 57 89 N9 30.01R CEDAR ISLAND N/A 63 N/A N/A NW20 30.06R JACKSONVILLE CLOUDY 60 56 86 N9 30.01R PINEY ISLAND CLOUDY N/A N/A N/A N15 30.00R WILMINGTON CLOUDY 61 57 87 N7 30.02R $$ NCZ011>013-027>030-043-044-078>080-089-090>093-098-221000- COASTAL PLAIN CITY SKY/WX TMP DP RH WIND PRES REMARKS AHOSKIE MOCLDY 54 51 92 CALM 30.05R CLINTON PTCLDY 60 57 88 N5 30.05R ELIZABETHTOWN CLOUDY 61 58 89 CALM 30.04R GOLDSBORO MOCLDY 59 55 87 NW6 30.02R GREENVILLE MOCLDY 57 54 88 N5 30.06R HAVELOCK MOCLDY 61 54 77 N13 30.03R KENANSVILLE CLOUDY 59 55 87 N6 30.05R KINSTON PTCLDY 58 55 89 N5 30.05R NEW BERN CLOUDY 60 54 80 N7 30.04R RICHLANDS CLOUDY 59 52 77 NW3 30.04R ROCKY MOUNT MOCLDY 58 55 90 N6 30.05R WASHINGTON MOCLDY N/A N/A N/A N5 30.04R WHITEVILLE CLOUDY 63 56 78 N3 30.03R $$ AMZ130-135-150-152-154-156-158-170-250-252-270-ANZ085-086-088-633-658-670-221000- MARINE OBSERVATIONS STATION/POSITION TIME TEMP WIND PRES WAVE SWELL AIR SEA DIR/SP/G HT/PER HT/PER (UTC) (F) (DEG/KT/KT) (MB) (FT/S) (FT/S) CHESAPEAKE LIGHT 0900 58 330/ 22/ 24 1015.7 64 E VA BEACH 0850 58 61 340/ 23/ 27 1013.3 7/ 7 2/11 DUCK 0900 60 66 340/ 22/ 28 1013.6 2 E DUCK 0811 65 N/A 5/ 6 OREGON INLET 0900 59 68 330/ 7/ 11 1015.4 13E OREGON INLT 0900 60 N/A 7/ 7 HATTERAS CG 0900 62 73 320/ 18/ 20 1015.2 DIAMOND BUOY 0850 65 76 330/ 17/ 21 1015.0 4/ 6 2/12 CAPE LOOKOUT 0900 61 360/ 11/ 13 1015.7 BEAUFORT LAB 0900 61 74 10/ 12/ 15 1015.4 27 SE WRIGHTSVLE 0900 64 78 20/ 17/ 19 N/A 5 SE WRIGHTSVLE 0808 64 76 10/ 16/ 21 1015.6 225 S CAPE HAT 0850 75 74 240/ 12/ 16 1014.2 4/ 6 2/ 9 41 SE CHARLESTON 0850 74 76 40/ 21/ 25 1013.5 3/ 5 2/ 8 $$

USA.gov is the U.S. government's official web portal to all federal, state and local government web resources and services.